Regional Weather Roundup
Issued by NWS Sioux Falls, SD

Home | Current Version | Previous Version | Text Only | Print | Product List | Glossary On
Versions: 1 2 3 4 5 6 7 8 9 10 11 12 13 14 15 16 17 18 19 20 21 22 23 24 25 26 27 28 29 30 31 32 33 34 35 36 37 38 39 40 41 42 43 44 45 46 47 48 49 50
000
ASUS43 KFSD 161210
RWRFSD

WEATHER ROUNDUP FOR SE SOUTH DAKOTA/SW MINNESOTA/NW IOWA
NATIONAL WEATHER SERVICE SIOUX FALLS SD
700 AM CDT WED APR 16 2014

NOTE: "FAIR" INDICATES FEW OR NO CLOUDS BELOW 12,000 FEET WITH NO
SIGNIFICANT WEATHER AND OR OBSTRUCTIONS TO VISIBILITY.


SDZ038>040-050-052>070-161300-
SOUTHEAST SOUTH DAKOTA

CITY           SKY/WX    TMP DP  RH WIND       PRES   REMARKS
CHAMBERLAIN    NOT AVBL
HURON          LGT RAIN  34  26  72 NE18G29   29.63R WCI  23
6HR MIN TEMP:  34; 6HR MAX TEMP:  41; 6HR PCP: TRACE;

MITCHELL       CLOUDY    43  32  65 E13       29.52F
6HR MIN TEMP:  42; 6HR MAX TEMP:  46; 6HR PCP: TRACE;

SIOUX FALLS    CLOUDY    46  25  43 S14G23    29.61S
6HR MIN TEMP:  40; 6HR MAX TEMP:  46; 6HR PCP: TRACE;

WINNER         FAIR      37  31  78 NW21      29.58R
YANKTON        CLOUDY    48  25  40 S20       29.57F
$$

MNZ071-072-080-081-089-090-097-098-161300-
SOUTHWEST MINNESOTA

CITY           SKY/WX    TMP DP  RH WIND       PRES   REMARKS
FAIRMONT       CLOUDY    36  25  64 SE20G26   29.80R
JACKSON        CLOUDY    36  28  75 SE15      29.75R
LUVERNE        CLOUDY    43  30  61 SE12      29.65S
MARSHALL       CLOUDY    34  21  60 E21G28    29.73S WCI  22
6HR MIN TEMP:  34; 6HR MAX TEMP:  36;

MONTEVIDEO     CLOUDY    34  21  60 SE25G35   29.81F WCI  21
PIPESTONE      CLOUDY    37  28  70 SE13      29.64S
REDWOOD FALLS  CLOUDY    35  21  56 SE12G24   29.81S WCI  27
TRACY          CLOUDY    34  26  70 E13G18    29.73F WCI  25
WINDOM         CLOUDY    36  28  75 SE15G24   29.74F
WORTHINGTON    CLOUDY    37  27  65 SE14G21   29.70F
$$

IAZ001>003-012>014-020>022-031-032-NEZ013-014-SDZ071-161300-
NORTHWEST IOWA

CITY           SKY/WX    TMP DP  RH WIND       PRES   REMARKS
CHEROKEE       CLOUDY    44  30  59 S16       29.74R
DENISON        CLOUDY    45  28  53 S23G39    29.73S
ESTHERVILLE    CLOUDY    36  30  79 SE20      29.75S
LE MARS        CLOUDY    45  30  57 S18G28    29.66S
ORANGE CITY    CLOUDY    45  27  49 S21G30    29.66F
SHELDON        CLOUDY    43  30  61 SE21G28   29.66F
SIOUX CITY     CLOUDY    48  27  44 S18       29.69R
6HR MIN TEMP:  44; 6HR MAX TEMP:  49;

SPENCER        CLOUDY    40  31  70 SE15      29.74S
6HR MIN TEMP:  35; 6HR MAX TEMP:  40;

STORM LAKE     CLOUDY    43  30  61 S20       29.74S
$$

ABBREVIATIONS USED IN REMARKS
   TC - TEMPERATURE IN CELSIUS
  WCI - WIND CHILL INDEX
   HX - HEAT INDEX
  VSB - VISIBILITY




USA.gov is the U.S. government's official web portal to all federal, state and local government web resources and services.